sat.trackr.live / text

‹ back to catalog

STARLINK-11706 [DTC]

NORAD 63753 · 2025-089C

PAYLOAD ACTIVE UNKNOWN

§ Identity

Operator
Country
US
Launch date
2025-04-29
Launch site
AFETR
Launch vehicle
Mass (kg)
RCS (m²)

Purposes: comms

External: N2YO · Heavens-Above · Gunter

§ Orbital elements

Epoch: 2026-09-20T05:20:13.604352Z

Period
91.67 min
Inclination
42.9998°
Eccentricity
0.0003028
Mean motion
15.70875217 rev/d
Perigee alt
354.4 km
Apogee alt
358.4 km
Semi-major
6,734.5 km
B*
1.1150e-3
RAAN
199.3797°
Arg perigee
250.0431°
Mean anomaly
110.0110°
Rev number
8,073

§ Raw data

STARLINK-11706 [DTC]1 63753U 25089C   26263.22237968  .00145376  00000+0  11150-2 0  99912 63753  42.9998 199.3797 0003028 250.0431 110.0110 15.70875217 80735

JSON: /api/v1/satellites/63753 · /tle

For live sub-satellite position, see the globe view (requires WebGL).

§ Visibility from observer

Set your observer location to see the next 7 days of passes ≥ 10°. The values pass through the URL so the page stays shareable.

No JS? Fill the form by hand. The geolocation button needs JavaScript.